Location: Aufkirchen
(47.9603°N, 11.3653°E)
Time: 16:33:24
(UTC+01:00)

Transit 2A - Pass Details

Date: 02 December 2020
Orbit: 599 x 960 km, 66.7° (Epoch: 26 January)

Event Time Altitude Azimuth Distance (km) Brightness Sun altitude
Rises 23:59:06 0° 327° (NNW) 3,371 - -64.0°
Reaches altitude 10° 00:02:03 10° 340° (NNW) 2,368 - -64.0°
Maximum altitude 00:06:33 26° 36° (NE) 1,430 - -64.0°
Drops below altitude 10° 00:10:41 10° 94° (E) 2,158 - -64.0°
Sets 00:13:15 0° 107° (ESE) 3,015 - -64.0°
